GFSWCAN_sfc_rhum_000.txt.gz
RH
83 76 77 79 81 79 82 82 83 78 76 71 72 72 73 73 70 91 93 89 97 94 73 69 62 69 64 60 62 52 58 86 94 93 88 82 71 65 66 55 68 67 82 92 82 70 65 61 59 46 57 61 63 58
81 83 79 81 82 81 81 81 80 79 75 70 75 72 72 71 70 78 98 90 82 99 83 72 69 59 59 56 62 56 54 70 96 93 92 95 89 80 78 76 63 70 78 87 83 79 79 79 76 69 62 47 52 58
82 84 84 84 84 81 80 78 79 79 75 71 76 76 71 74 73 80 96 96 98 97 80 78 68 51 48 51 48 64 50 63 67 74 89 96 93 93 89 79 67 73 73 75 81 72 78 72 67 62 62 63 58 60
82 81 80 79 82 80 78 78 78 77 73 74 71 74 74 76 76 77 97 93 97 91 96 82 56 61 49 53 50 47 38 44 55 74 83 94 89 87 89 89 89 84 71 74 79 77 70 58 68 72 60 54 51 51
83 82 83 77 83 81 78 76 79 78 72 72 75 73 72 77 78 89 98 97 90 95 91 86 59 55 58 55 51 47 48 51 62 70 82 69 85 79 92 95 96 91 94 77 82 70 67 70 62 64 52 49 50 49
86 86 86 82 84 82 80 77 78 74 73 73 76 75 77 79 81 94 98 99 95 88 99 94 74 69 60 52 47 50 51 64 77 66 54 66 67 85 94 97 84 89 94 87 81 74 67 60 51 45 45 47 44 46
86 87 86 86 84 83 80 77 78 75 73 76 77 76 82 81 97 83 91 95 84 79 95 99 96 70 57 49 52 56 57 60 61 51 53 60 48 90 96 94 82 85 85 82 81 74 62 64 65 49 46 43 45 41
86 84 84 82 79 78 78 78 74 74 75 74 76 78 80 86 88 90 68 87 79 72 90 99 92 74 60 49 51 59 54 61 54 45 49 57 71 93 94 83 73 71 66 64 65 56 66 66 62 58 52 50 50 53
88 83 82 81 80 80 77 75 72 71 73 75 77 80 92 96 96 81 77 76 84 83 91 88 99 85 57 49 54 60 61 54 55 71 84 76 89 99 90 85 78 73 66 62 66 68 66 62 62 61 58 58 59 61
85 85 84 84 83 77 77 74 72 74 79 79 91 91 96 82 73 80 81 86 94 93 96 98 92 83 58 64 55 62 60 61 61 64 78 84 97 84 93 89 82 81 77 72 72 78 77 77 75 71 65 61 62 68
86 86 85 83 79 78 78 75 75 79 80 94 97 96 90 82 82 90 92 95 95 95 97 93 83 73 64 72 70 61 61 59 70 77 81 91 98 95 92 85 83 82 77 78 79 82 85 86 84 78 75 73 71 71
86 86 84 81 79 78 79 82 83 90 98 96 97 95 98 94 93 91 93 85 89 79 80 83 58 77 78 70 64 63 57 54 54 69 88 95 98 95 93 87 87 88 81 80 80 83 84 82 83 84 84 87 86 85
86 84 85 84 82 82 82 81 82 87 92 96 94 92 93 92 93 96 97 89 90 76 73 71 56 77 81 61 60 58 56 63 80 88 94 98 96 95 96 87 83 82 77 78 82 84 79 79 78 85 89 86 84 84
85 85 87 86 84 82 81 84 82 89 96 98 98 99 99 100 97 97 94 95 85 92 88 78 65 72 82 56 66 63 61 74 77 92 96 97 95 92 92 86 82 83 80 78 81 79 77 80 82 80 82 90 89 87
83 87 86 89 85 83 83 86 85 96 98 98 92 98 99 95 95 94 95 96 86 92 92 84 65 69 83 63 68 59 73 89 92 97 98 98 95 93 87 84 86 87 88 84 81 80 79 80 82 85 86 88 93 92
80 82 93 88 84 84 84 89 92 97 98 93 90 95 91 92 92 92 91 85 85 93 90 74 68 64 71 82 89 92 78 97 99 98 98 96 95 94 94 93 92 91 91 88 87 83 81 80 86 86 88 86 89 91
84 97 89 87 84 86 83 92 97 92 82 86 94 92 99 99 98 96 95 91 86 82 90 79 78 85 74 92 96 95 96 97 96 96 97 95 94 94 95 93 90 90 88 86 86 85 86 85 86 83 79 82 89 91
98 96 86 85 88 90 92 96 92 83 91 94 98 93 94 97 98 92 86 86 79 84 81 88 85 94 97 88 96 93 95 94 98 97 98 96 95 94 94 93 90 90 88 85 86 85 82 80 82 87 88 86 90 87
89 92 84 86 92 97 98 94 86 91 87 90 89 92 97 90 89 86 86 84 82 84 76 85 90 95 97 96 91 94 97 98 99 98 96 94 92 94 94 93 91 85 82 85 80 77 80 82 75 79 83 90 89 87
83 87 84 87 86 96 88 93 92 92 95 96 96 96 98 89 90 92 88 90 87 81 87 91 94 94 94 94 95 96 97 98 99 98 91 85 90 91 94 95 92 92 87 80 77 79 71 67 66 69 74 81 82 74
91 90 89 92 96 95 96 98 92 97 98 97 96 98 98 97 97 96 97 97 80 82 93 96 96 96 94 96 97 97 97 97 97 98 94 97 89 97 96 86 93 86 79 70 70 64 67 67 69 69 66 65 66 67
96 88 97 92 94 91 94 96 97 98 97 96 97 98 96 98 97 98 99 96 94 97 95 95 92 92 90 88 90 89 92 94 96 98 99 99 98 89 78 78 62 57 58 63 64 62 61 63 66 64 64 64 67 62
90 91 94 91 90 96 91 96 92 93 97 97 96 92 94 96 96 97 95 97 96 96 96 94 91 88 92 94 94 94 94 94 95 95 95 95 81 65 53 55 56 55 54 55 60 58 60 70 62 58 59 58 59 57
88 95 94 99 98 97 94 92 94 95 94 94 97 100 97 98 97 97 97 98 95 97 98 96 98 96 92 91 94 95 96 97 96 87 93 83 58 60 60 58 58 56 57 55 52 54 57 62 66 57 57 55 58 60
98 99 97 98 99 100 96 94 92 96 99 97 100 99 96 98 98 97 96 92 95 94 94 95 95 95 97 94 93 90 87 94 84 65 72 78 65 60 57 59 59 59 58 50 51 54 58 60 59 57 59 68 76 78
100 94 98 96 98 98 95 95 93 94 92 95 93 95 98 96 90 91 94 95 95 91 88 86 89 90 87 90 74 61 60 61 55 49 53 58 54 52 56 56 52 49 53 58 56 54 57 58 56 56 58 72 83 71
99 94 93 97 98 96 97 97 97 96 94 92 94 96 91 85 80 84 93 93 89 82 88 89 86 77 77 63 61 60 60 61 60 55 59 60 60 60 56 50 50 50 56 54 54 55 57 57 55 54 53 62 73 73
90 92 97 93 94 95 95 93 92 88 84 91 87 78 78 74 73 73 78 75 75 63 52 51 56 56 55 55 54 52 50 55 54 59 58 56 58 55 57 54 56 70 60 56 56 59 59 57 56 55 55 55 62 73
97 96 97 89 96 97 97 73 57 58 63 74 69 71 70 70 74 73 68 61 51 43 46 48 49 50 49 50 54 55 59 56 49 53 53 55 53 50 55 55 52 53 60 61 75 75 69 68 69 70 70 72 72 70
75 83 80 69 63 70 64 62 54 54 63 65 68 65 57 57 58 56 51 46 47 50 56 54 57 55 56 57 57 55 54 56 55 54 54 54 54 55 60 61 60 64 66 63 63 64 76 67 69 65 70 73 77 78
87 85 80 79 67 66 66 77 69 52 56 60 62 63 71 69 63 74 70 53 51 48 49 52 50 56 57 58 64 61 57 54 61 61 62 60 61 65 68 66 64 64 64 61 60 61 66 70 70 69 68 67 68 69
90 83 91 82 81 85 88 79 73 73 70 81 90 87 90 95 97 98 99 97 91 64 59 56 53 59 60 59 58 61 74 62 61 71 74 68 66 65 64 59 55 52 53 51 52 51 53 60 64 61 61 60 60 62
87 90 90 93 88 80 85 81 87 91 92 93 96 96 95 94 92 95 96 94 75 52 55 59 58 57 57 55 56 58 66 62 72 82 77 77 76 67 54 53 51 50 51 53 53 54 55 57 58 59 60 62 63 64

GFSWCAN_sfc_rhum_003.txt.gz
RH
80 78 76 78 79 78 76 79 80 79 80 76 74 69 70 72 74 93 86 88 95 88 54 50 49 62 60 57 64 46 44 57 81 82 64 48 46 42 42 43 48 55 72 87 73 64 49 51 50 40 48 49 44 44
79 79 78 79 81 77 79 81 79 79 80 78 75 70 70 73 72 78 93 67 94 99 60 53 55 54 62 54 59 51 50 52 66 69 71 76 73 51 64 46 44 62 59 87 69 74 61 54 62 49 42 45 42 49
81 80 79 78 78 75 79 81 80 79 78 76 72 68 71 79 72 78 76 73 84 80 59 54 49 39 38 44 44 62 45 44 71 56 80 84 88 72 72 61 48 60 52 63 88 83 61 56 48 48 48 50 48 45
84 82 81 81 80 76 80 79 78 76 75 73 71 71 67 67 70 71 88 72 79 71 80 45 41 49 40 39 46 47 41 42 46 82 85 87 84 61 71 77 68 74 75 70 63 61 55 49 54 51 50 47 46 46
86 84 82 83 84 77 80 79 81 77 71 70 70 69 70 70 75 86 88 78 63 66 78 59 46 43 39 43 47 49 52 54 47 80 83 60 53 59 72 80 93 88 89 68 55 73 72 59 51 53 54 51 45 47
87 87 85 83 83 84 82 78 74 74 70 72 73 73 67 74 78 67 78 81 73 68 88 70 47 54 47 51 53 55 54 54 46 60 60 48 50 64 84 92 81 86 81 87 71 68 68 47 44 37 45 43 39 40
84 86 83 82 81 79 77 76 75 72 72 73 72 74 76 82 86 67 69 87 75 64 82 81 63 47 49 44 46 45 46 46 52 51 49 45 48 66 88 95 81 75 76 72 63 57 59 51 49 41 45 39 42 38
85 84 82 80 79 78 78 76 75 73 72 73 76 77 80 85 83 75 66 81 72 70 68 84 68 60 39 39 43 44 44 48 52 41 44 65 86 86 94 87 75 62 64 68 66 59 62 55 60 53 48 44 48 43
85 84 83 82 80 77 77 75 74 73 73 76 79 79 74 76 69 67 90 84 72 64 73 81 80 64 44 37 42 49 44 40 40 60 60 59 74 99 98 94 91 84 70 68 81 80 79 76 66 64 50 46 50 52
85 85 85 85 81 79 78 75 75 77 81 79 72 76 78 68 74 74 88 75 74 74 75 85 60 63 49 47 47 46 44 43 70 60 55 88 98 95 97 94 94 90 89 73 76 74 72 69 64 61 59 53 51 50
86 85 84 81 80 81 80 80 83 83 79 73 88 88 79 78 66 70 79 80 80 86 81 76 69 75 60 73 58 50 47 46 60 69 62 92 97 97 94 88 80 72 70 70 68 67 65 62 59 58 60 56 54 54
86 86 87 84 83 82 81 83 86 81 91 93 98 90 87 77 81 81 73 66 72 68 68 72 49 66 76 63 53 55 44 43 60 58 66 90 95 85 80 74 68 64 65 66 62 58 56 57 56 59 60 60 60 60
86 88 87 87 85 83 84 85 86 87 90 89 87 84 82 83 98 93 99 73 72 61 60 61 56 64 76 47 51 50 48 60 64 76 88 94 95 84 80 67 65 60 57 56 55 52 51 51 54 58 61 63 60 58
86 87 88 89 85 85 85 86 85 86 89 90 94 100 99 100 97 96 89 88 71 81 73 74 64 68 67 50 51 49 54 63 73 90 96 97 92 86 73 68 63 64 62 58 57 52 51 54 53 53 58 63 64 65
81 82 86 85 86 84 84 85 84 90 94 95 97 100 100 95 88 84 84 82 79 86 84 75 56 67 58 52 60 50 64 80 92 94 96 97 89 79 75 72 66 65 64 63 63 60 55 55 56 53 57 61 69 69
83 78 76 87 88 86 90 82 79 86 87 93 91 95 90 87 75 71 68 65 62 70 81 53 55 67 56 71 74 80 72 96 98 98 89 84 88 85 82 75 72 70 68 63 65 64 62 59 63 65 61 64 65 71
78 75 80 87 86 89 84 81 82 77 86 82 83 79 88 88 84 72 69 65 64 63 65 60 74 82 65 70 81 91 98 99 98 86 82 88 87 86 80 72 72 71 70 67 67 66 70 66 65 61 62 67 76 83
71 71 81 88 88 83 75 75 77 69 78 78 87 84 82 84 80 65 63 65 65 66 67 80 67 74 83 91 89 85 86 79 78 79 79 82 84 86 82 79 77 74 71 68 69 68 64 62 56 51 69 71 65 65
82 82 86 88 86 86 89 73 72 76 72 72 72 68 72 67 66 68 63 65 66 63 63 66 72 77 87 90 84 84 82 85 84 80 79 80 84 87 84 79 76 72 74 70 63 51 50 61 53 46 45 48 43 44
89 88 87 89 82 87 74 84 72 75 81 84 70 70 75 69 72 65 62 67 63 62 71 69 72 79 85 80 76 79 81 89 89 72 70 73 78 82 79 75 68 69 52 55 47 58 42 41 41 43 42 45 41 39
84 79 85 81 79 83 85 86 77 89 92 86 80 80 80 70 70 73 74 70 62 73 72 74 72 74 80 80 80 82 91 89 88 90 86 94 87 72 59 48 41 40 44 41 36 38 42 39 38 36 36 37 38 38
87 87 82 76 79 76 80 83 87 80 79 70 72 76 84 84 86 87 83 66 72 73 75 72 71 71 73 81 84 83 86 86 87 85 93 88 83 44 42 39 35 36 36 36 35 34 34 35 36 33 33 33 38 30
88 85 80 77 79 89 85 72 81 81 93 85 76 80 82 83 81 73 86 92 94 91 87 86 88 87 90 91 85 83 83 85 88 90 85 84 52 41 39 40 34 34 33 34 33 32 34 56 40 36 34 34 36 36
87 90 91 94 91 98 90 93 91 93 90 92 97 100 96 97 96 97 96 97 94 97 96 93 94 89 86 84 89 86 80 74 57 60 86 46 36 43 41 36 32 31 33 30 29 30 33 37 49 33 34 39 44 50
94 98 94 100 94 94 87 87 87 85 90 89 98 94 92 92 91 88 89 89 90 88 90 84 92 87 73 47 42 44 54 43 41 39 55 39 39 38 37 36 35 32 31 30 30 31 36 36 35 34 34 41 50 43
99 89 96 87 89 92 85 84 85 82 82 84 82 81 83 82 69 72 80 88 88 82 81 71 56 49 54 49 42 40 43 43 42 35 39 40 39 37 36 35 33 31 29 32 34 36 38 37 37 38 35 37 60 44
92 87 87 86 87 88 87 86 87 87 81 77 79 80 71 68 62 75 88 83 69 65 64 56 50 42 45 40 40 40 38 42 49 48 46 44 41 40 38 38 39 36 34 36 38 40 43 43 41 40 39 38 37 38
83 88 89 80 86 83 80 76 75 72 63 70 68 65 63 64 79 68 58 49 46 42 40 40 41 38 38 39 39 38 36 33 33 38 37 35 38 37 42 38 39 71 46 50 47 46 46 47 49 50 52 53 54 54
86 77 90 82 75 77 75 64 46 44 51 56 56 64 67 60 58 56 49 41 37 35 39 40 39 33 33 36 37 37 37 35 37 41 41 38 36 36 42 43 44 44 43 43 81 63 55 49 48 46 46 47 48 50
66 66 69 61 58 55 54 49 47 46 49 48 50 59 66 73 72 57 49 44 43 41 39 39 40 39 39 39 36 38 36 38 40 42 43 43 46 46 46 45 44 41 39 38 38 37 60 45 49 40 43 41 42 44
71 64 64 64 60 52 62 64 49 43 46 50 54 71 82 72 76 94 96 93 76 56 48 44 41 41 41 42 44 43 40 40 48 50 47 45 44 44 42 40 37 36 36 37 37 37 38 39 40 42 42 44 45 46
72 69 73 67 66 73 78 79 75 61 68 83 93 94 94 95 94 94 92 88 72 45 53 43 40 40 38 36 40 44 68 46 45 42 42 39 39 39 37 36 36 36 38 39 39 39 41 42 41 43 43 44 45 46
67 67 70 72 69 64 74 72 75 80 81 86 92 91 84 81 80 87 76 58 42 38 40 40 37 37 43 44 47 47 53 46 61 81 81 80 79 64 41 39 40 40 41 41 40 40 42 44 44 46 46 46 46 46

GFSWCAN_sfc_rhum_006.txt.gz
RH
84 81 80 78 76 77 78 77 78 78 77 77 75 73 71 71 68 92 96 87 97 98 76 54 39 44 56 49 48 44 47 49 49 71 43 26 23 20 20 26 41 40 36 27 33 42 38 43 35 41 46 39 33 28
82 83 82 81 78 78 77 75 78 80 77 75 73 73 69 71 72 82 92 76 91 99 71 47 41 36 39 33 39 41 47 50 36 59 61 53 55 31 30 25 30 31 26 27 34 29 53 46 51 46 35 38 34 34
84 84 85 82 81 82 79 73 78 79 77 73 72 70 69 72 76 82 94 89 76 78 59 44 40 29 28 28 32 47 40 39 48 43 46 64 76 46 55 37 30 35 32 35 48 51 50 50 45 39 36 34 32 31
84 83 84 86 84 80 81 78 77 77 77 71 69 68 66 67 67 73 91 70 72 72 60 30 25 31 25 25 28 35 36 38 51 45 68 70 66 44 58 59 56 48 48 47 50 60 46 47 48 46 43 38 36 34
85 84 84 82 80 79 79 79 78 75 70 68 67 68 67 67 72 80 69 57 67 83 48 39 28 29 26 28 34 34 39 43 67 74 98 68 36 44 43 53 92 85 82 43 42 61 78 78 52 44 43 40 39 38
86 86 83 81 79 78 77 77 73 71 68 72 70 72 66 68 74 59 55 66 58 58 49 44 32 38 37 35 35 41 42 49 51 49 87 87 34 50 86 93 77 77 71 71 55 55 66 72 54 37 40 38 34 34
86 83 83 81 81 79 80 78 74 72 71 73 73 74 74 76 59 60 64 53 68 48 73 71 43 34 39 41 40 40 41 42 39 37 69 94 57 65 81 96 74 72 68 60 51 61 71 75 85 56 36 31 36 30
84 83 82 82 78 76 76 76 75 72 71 72 74 76 79 82 79 55 48 73 59 77 62 84 64 54 34 32 39 35 41 46 38 34 80 96 81 69 92 85 69 69 72 84 83 64 53 55 80 68 39 31 35 43
87 85 84 83 81 80 78 76 76 75 77 78 79 76 58 55 49 55 74 86 64 70 93 76 69 71 30 28 33 37 33 40 36 67 88 77 86 98 98 89 83 72 72 81 85 86 78 73 68 57 55 40 35 38
86 86 85 83 82 80 81 82 82 83 84 80 63 54 62 53 74 64 93 69 69 76 71 64 38 55 44 32 33 32 33 47 77 80 64 92 96 95 92 93 90 84 86 82 86 87 87 83 78 64 58 52 43 40
86 86 86 85 83 83 83 84 83 82 73 56 68 70 53 65 56 54 66 79 84 81 56 56 55 63 47 66 52 33 39 43 70 74 85 92 96 93 93 93 93 90 89 84 75 81 81 63 48 48 51 44 42 42
88 88 88 87 84 84 85 85 86 62 62 76 91 78 61 60 65 69 68 67 87 64 50 56 55 56 58 45 43 38 35 36 56 51 69 96 96 92 91 78 80 82 80 72 57 52 47 48 49 52 51 52 48 46
85 85 88 88 86 84 84 84 85 86 78 67 76 74 71 70 98 95 86 71 79 56 49 50 55 45 52 40 38 38 42 61 43 61 80 95 95 86 84 70 61 59 55 52 46 41 38 39 41 47 54 51 48 48
85 84 84 85 84 86 87 89 89 78 71 81 86 100 99 95 95 89 90 80 56 51 51 48 52 78 36 38 38 45 42 44 62 72 93 96 88 82 79 65 51 49 46 45 43 41 40 37 39 43 46 50 46 51
85 85 83 74 78 86 90 87 83 72 84 91 95 100 99 90 81 62 57 50 44 44 47 39 36 37 39 44 39 42 53 79 92 96 93 89 84 74 71 63 56 50 46 49 44 42 42 39 37 41 46 48 51 52
84 81 58 77 84 88 91 70 60 59 74 84 84 90 78 68 54 47 48 46 42 46 43 35 40 45 52 56 65 82 76 95 97 96 96 86 76 70 75 63 57 52 51 46 44 44 40 43 48 48 41 43 47 53
86 49 78 83 87 88 82 59 58 64 58 60 64 54 58 54 51 44 46 47 44 40 46 43 61 70 54 69 92 90 97 97 96 92 91 78 79 80 74 64 57 52 56 52 48 47 52 46 40 41 48 49 44 47
52 52 76 84 84 67 51 50 55 48 57 47 52 50 51 45 49 47 49 48 46 48 48 60 51 70 82 93 86 94 96 95 92 89 80 69 78 74 65 67 61 57 57 54 52 47 47 45 36 33 40 43 34 33
70 74 84 88 81 71 62 52 56 55 46 44 46 42 46 43 47 48 45 49 50 48 44 46 58 69 86 90 89 84 87 84 85 64 61 75 74 72 69 66 60 58 55 52 47 36 37 46 39 33 29 28 28 27
91 87 86 87 77 65 57 65 50 52 55 53 46 50 48 49 46 43 42 43 41 43 51 57 60 64 57 56 55 56 54 59 80 71 71 82 48 54 60 48 40 42 34 38 33 45 30 30 27 28 28 32 31 31
72 63 77 62 53 57 56 58 52 58 58 50 48 52 49 45 49 49 51 39 42 48 49 48 47 48 63 60 54 54 59 64 85 84 77 74 46 34 33 30 32 28 28 29 29 30 34 30 28 25 26 26 26 25
64 82 59 56 61 60 59 54 59 55 54 50 52 50 54 59 62 61 57 65 75 86 78 76 74 73 70 77 78 75 80 73 73 84 92 82 44 39 36 31 29 29 30 30 29 29 28 27 27 24 25 26 31 25
83 74 61 62 73 84 78 57 70 73 82 71 59 67 78 81 80 77 97 94 94 78 81 81 82 72 80 75 72 73 64 63 72 82 81 72 37 34 30 30 26 29 30 30 27 27 27 43 31 26 24 25 27 30
83 79 81 81 80 87 65 73 65 70 70 76 91 99 90 86 83 90 88 91 90 87 89 81 82 77 56 56 38 40 37 30 28 32 36 30 28 32 30 27 25 26 28 26 25 26 25 26 39 24 25 25 29 30
90 94 84 100 80 79 68 67 70 66 72 72 87 76 75 77 81 78 80 80 84 81 74 65 39 36 35 33 30 30 37 27 28 28 31 30 31 27 26 27 27 27 24 27 27 26 26 24 26 27 28 26 32 32
96 78 88 68 70 73 68 65 67 70 64 64 64 57 56 60 52 69 77 85 82 52 44 40 36 35 36 33 32 31 28 26 31 30 35 32 31 31 32 32 30 30 26 27 29 29 29 29 29 32 30 32 48 34
76 71 65 65 69 71 66 64 67 66 60 61 59 56 44 52 61 71 56 49 41 39 36 32 32 31 32 31 29 27 24 24 33 34 32 29 28 30 32 34 37 38 32 34 32 33 35 34 34 34 33 33 33 34
66 68 66 57 61 55 61 52 50 50 44 47 47 51 59 61 66 52 41 36 32 30 29 29 28 28 30 31 30 28 25 22 23 23 21 22 23 25 32 29 32 66 40 38 37 36 37 37 38 37 37 35 34 34
58 48 66 61 52 50 51 45 39 38 41 40 50 55 53 49 44 45 48 48 50 47 50 55 35 28 28 28 25 23 25 26 31 36 36 31 31 32 30 30 30 29 28 28 69 50 38 34 36 34 34 31 30 30
48 44 53 48 48 52 54 41 41 38 39 47 55 74 92 92 86 79 90 92 94 86 47 33 31 30 29 27 26 26 23 28 31 34 36 38 34 30 30 29 28 27 27 28 27 27 49 35 36 29 32 30 30 32
45 42 43 46 50 48 48 36 39 44 53 71 85 89 89 93 93 89 84 76 48 32 31 31 29 28 27 26 30 33 30 31 34 35 34 29 28 30 31 31 29 28 30 30 30 29 31 31 30 32 33 36 38 40
42 51 54 45 51 59 56 50 53 61 60 83 83 69 65 68 71 72 42 32 30 32 46 34 30 30 29 28 30 32 56 33 36 36 41 36 35 34 31 28 28 29 30 30 29 29 31 33 32 36 37 39 38 38
36 32 35 33 34 36 46 57 61 70 63 64 72 70 60 64 69 70 36 32 33 31 31 31 28 28 34 33 34 33 43 32 52 73 71 73 76 63 36 30 31 31 32 30 30 30 32 35 35 38 38 39 39 41

GFSWCAN_sfc_rhum_009.txt.gz
RH
85 85 84 83 82 81 78 78 77 74 78 77 75 72 72 72 72 72 73 76 98 98 78 54 41 45 40 36 47 79 32 45 42 54 42 28 24 19 21 22 24 24 26 23 25 28 30 29 24 28 40 33 29 28
86 86 84 84 85 84 81 81 78 73 77 75 73 70 72 68 70 72 86 77 83 99 68 46 40 34 34 30 30 30 40 51 36 72 72 67 78 57 31 29 17 21 19 21 23 24 43 39 40 35 31 32 30 28
87 86 85 85 84 82 79 79 78 77 76 75 71 68 68 71 71 79 74 87 93 98 66 43 35 26 24 26 24 36 31 34 37 45 52 61 86 92 66 33 21 30 18 21 36 45 43 38 33 32 32 31 27 26
86 83 84 83 81 79 78 78 77 76 77 70 68 66 66 66 71 75 93 92 94 89 69 33 17 22 18 18 25 24 30 32 37 37 52 67 78 90 89 90 66 88 76 32 48 48 45 46 43 42 40 32 33 31
88 86 83 83 82 78 76 76 74 71 69 68 69 69 69 66 70 70 79 79 93 97 64 40 26 22 17 18 23 24 26 34 35 53 93 80 60 85 76 84 94 94 96 92 53 46 52 52 42 38 42 44 42 42
87 85 85 85 83 80 76 75 74 72 70 71 73 71 68 70 74 72 90 72 60 78 65 40 26 28 28 20 28 29 28 34 43 86 89 70 46 54 95 89 73 81 82 62 69 45 45 44 41 41 35 33 35 35
87 86 86 84 82 80 78 77 75 73 72 71 70 72 74 76 57 88 81 58 54 44 65 68 65 37 33 28 27 30 33 41 74 90 56 77 62 91 81 93 73 74 69 62 50 51 58 49 70 52 40 30 33 27
86 86 86 83 82 78 80 78 80 78 76 74 75 76 78 82 75 59 52 66 57 71 79 89 62 62 31 34 36 31 39 45 77 78 61 90 95 93 95 91 73 74 74 66 58 54 56 59 76 83 73 64 36 35
86 86 86 84 83 81 82 83 83 81 82 82 81 79 58 55 46 80 72 78 63 74 96 96 97 92 29 62 53 30 26 34 42 44 87 97 95 98 96 94 94 85 87 86 72 77 72 70 73 81 80 66 54 38
87 87 87 86 85 84 84 84 84 82 80 83 66 67 67 41 74 64 90 98 96 74 74 70 40 81 49 33 26 25 29 42 54 92 95 92 97 95 91 87 90 89 86 81 83 85 88 89 88 79 74 70 68 61
85 86 87 87 86 85 84 85 86 86 72 50 51 53 44 63 49 73 88 88 85 81 57 53 59 64 39 77 60 70 85 54 87 97 91 93 96 97 88 87 85 89 87 85 85 81 87 88 88 84 68 57 60 45
85 85 85 84 85 85 83 87 89 65 53 69 68 63 56 60 74 76 84 79 77 95 87 93 59 45 41 44 68 45 59 84 75 92 87 96 96 92 83 83 84 84 75 72 60 58 56 45 46 54 60 56 48 45
84 84 84 84 83 82 82 89 91 89 80 65 79 76 76 72 97 89 93 91 90 74 76 80 72 41 42 56 83 90 48 66 50 84 95 95 89 88 87 81 67 60 53 55 54 48 39 38 40 42 47 41 42 43
88 86 85 84 83 80 86 91 87 72 63 67 77 100 98 97 88 78 79 69 66 55 50 60 50 44 35 40 45 48 62 68 70 91 96 95 90 80 73 62 48 44 40 38 39 41 36 35 40 40 43 45 46 56
85 84 87 76 79 82 86 90 84 58 70 89 87 100 96 77 72 70 62 44 35 30 33 67 36 33 36 44 41 49 55 89 95 96 95 95 85 78 61 52 46 40 42 42 39 37 36 33 37 39 44 43 45 49
84 80 56 77 81 83 87 70 55 51 65 85 84 77 57 58 47 38 38 36 32 32 40 36 39 47 55 61 82 85 82 97 97 98 94 92 87 65 66 64 47 42 41 42 38 37 37 37 38 38 35 36 39 44
89 41 78 80 84 86 79 53 43 44 42 46 49 30 37 40 42 38 37 35 33 32 35 35 60 67 52 66 94 94 97 96 94 96 94 92 86 74 67 65 51 43 44 42 42 44 45 38 37 38 42 39 36 39
47 45 75 82 80 59 40 37 39 32 38 33 38 36 37 36 41 40 36 36 37 37 36 45 43 57 65 86 91 91 96 97 94 92 87 81 74 73 77 71 63 56 50 44 42 44 43 40 34 32 34 35 36 31
67 69 85 88 77 66 45 40 43 40 32 34 34 32 35 37 37 35 34 40 34 30 33 40 56 71 82 84 87 83 85 87 89 87 82 69 73 65 56 53 54 51 45 43 38 31 33 38 31 27 26 27 26 27
90 85 84 85 76 49 44 45 36 39 40 38 34 36 34 39 36 33 31 31 32 36 43 49 50 53 57 68 70 74 86 88 86 81 56 53 46 45 45 38 33 36 31 34 31 40 26 26 24 24 24 27 26 26
69 60 70 56 42 43 44 44 41 41 40 41 35 37 41 42 48 51 64 37 41 50 58 66 74 77 66 73 71 72 71 68 75 66 56 44 36 30 30 28 30 27 27 26 26 27 31 26 24 22 22 22 23 22
56 80 52 48 52 50 52 47 49 46 55 42 50 51 67 70 64 62 61 63 84 94 93 92 91 83 76 76 75 61 72 68 68 72 72 65 53 44 39 29 28 26 26 26 25 25 24 23 23 21 21 22 27 22
76 67 51 51 64 74 68 44 58 57 70 61 51 60 68 68 80 63 93 91 93 94 92 90 79 69 60 46 47 43 44 44 30 32 31 27 28 29 26 25 23 26 27 26 24 24 24 36 28 23 22 22 22 24
86 67 72 68 62 78 48 55 46 49 48 51 65 78 67 70 71 86 85 90 89 83 60 57 37 39 34 49 32 33 32 26 25 25 28 26 25 26 26 24 22 22 24 24 23 23 23 22 33 21 23 24 23 25
84 85 71 99 60 59 50 50 51 44 50 50 60 59 58 59 62 73 85 87 70 40 39 36 33 33 33 31 28 26 31 22 26 27 29 26 26 24 24 25 29 29 25 27 27 26 25 24 24 24 25 24 29 29
92 62 81 49 49 49 46 47 47 49 47 46 46 37 42 54 51 73 84 61 44 38 36 35 34 32 32 31 30 27 24 21 25 27 28 23 25 26 28 30 28 31 29 28 28 28 28 28 27 29 26 28 43 30
67 52 53 48 46 45 48 39 39 37 41 46 41 39 40 54 70 62 51 40 41 36 34 33 33 32 31 29 27 25 22 21 26 24 20 23 22 25 28 29 34 34 28 29 28 28 30 30 28 28 28 27 26 26
51 49 57 44 45 36 47 39 37 40 38 35 45 52 62 70 76 53 51 45 44 47 48 40 34 28 25 23 20 18 20 20 22 22 20 18 21 23 27 24 25 56 27 27 25 25 27 27 27 26 28 27 26 25
48 34 39 45 38 39 43 51 44 36 37 36 54 66 76 87 84 67 58 52 50 75 60 32 28 22 20 18 18 18 20 23 29 33 32 28 26 24 23 23 22 22 22 23 60 43 34 29 29 27 29 26 25 26
36 29 41 40 45 54 46 34 38 37 40 46 59 71 84 90 86 68 63 52 41 29 26 24 22 22 21 19 21 23 21 23 26 30 33 30 26 23 25 25 25 24 24 25 24 23 48 30 32 24 28 27 29 30
28 28 36 46 41 38 37 38 38 39 42 50 56 71 72 58 59 46 30 30 25 24 26 25 22 21 22 23 27 29 27 27 30 32 33 27 25 26 27 26 24 24 25 25 24 24 25 26 26 28 30 33 34 35
27 31 30 34 39 38 40 58 47 47 41 49 49 46 54 76 78 44 32 28 27 26 38 27 24 24 25 24 24 25 55 26 31 32 35 30 29 31 26 24 24 24 26 25 24 24 27 29 29 32 33 36 38 38
26 25 27 26 27 27 33 54 68 62 42 38 55 55 46 52 59 38 29 28 29 26 25 22 21 22 28 28 28 28 36 29 52 72 66 65 67 56 34 27 29 29 30 28 28 29 32 35 35 38 37 37 37 35

GFSWCAN_sfc_rhum_015.txt.gz
RH
89 88 87 85 84 85 84 84 84 79 77 76 74 73 72 70 72 90 92 88 98 99 81 64 59 69 60 57 77 76 89 88 86 90 72 86 84 60 67 59 56 53 47 46 49 49 49 45 33 41 53 49 38 37
89 89 86 86 86 86 84 83 83 82 80 74 72 70 69 69 70 74 70 85 92 100 91 66 63 58 56 51 56 75 88 86 94 95 77 84 75 88 88 87 51 64 81 71 45 60 68 66 62 60 50 49 44 59
90 88 86 85 85 85 84 82 81 80 78 73 71 70 70 70 70 73 77 94 96 98 81 64 56 44 44 46 45 62 53 51 86 87 94 96 96 90 92 76 84 57 76 78 68 45 48 57 58 63 81 80 70 72
89 88 88 87 85 84 84 81 82 82 80 75 72 72 72 74 74 69 85 95 97 99 99 68 36 43 35 31 39 46 45 41 66 97 98 92 94 96 95 91 93 92 85 91 83 88 90 65 83 70 73 75 68 67
88 87 86 86 86 85 84 82 83 82 82 79 76 74 72 72 79 74 60 88 96 99 98 84 65 51 36 38 36 42 42 44 43 66 88 84 93 93 92 94 94 92 94 96 100 93 97 93 78 82 65 68 66 66
86 86 86 86 85 85 84 83 82 82 82 83 80 78 78 78 79 65 97 94 92 98 99 96 46 42 58 51 39 40 40 48 41 51 73 85 82 94 97 96 85 90 92 95 94 87 91 84 64 50 50 48 52 58
86 86 85 85 86 85 84 84 84 83 85 86 87 88 86 86 77 72 79 75 77 70 96 89 60 71 55 53 32 35 37 40 56 88 83 95 95 96 96 96 88 93 92 92 85 86 89 93 95 64 54 46 45 44
87 86 85 85 84 83 82 81 81 82 83 86 88 89 89 88 88 88 64 64 69 72 83 98 73 84 77 73 52 40 45 63 77 91 94 96 96 98 96 92 96 94 95 91 89 79 88 90 89 85 64 57 58 61
87 86 85 84 83 83 83 83 82 82 84 88 89 90 83 83 73 87 67 70 66 72 95 95 97 99 93 93 89 81 51 69 94 97 96 98 98 99 99 97 96 98 98 95 88 89 74 75 80 81 74 77 71 65
86 86 86 85 83 85 87 88 86 85 88 89 80 66 86 86 84 87 92 98 98 95 88 90 76 96 94 85 82 80 61 95 98 96 95 97 98 95 97 99 97 96 97 97 90 92 91 92 90 86 83 84 84 79
86 85 85 85 86 87 88 88 85 88 88 67 66 62 66 78 81 98 96 98 96 98 92 81 89 97 91 95 95 92 92 94 99 97 94 98 98 96 96 97 95 93 94 94 91 88 86 86 88 84 81 86 88 85
87 87 87 87 87 87 89 84 87 78 66 76 80 74 69 80 91 93 96 97 99 99 93 97 94 96 93 90 94 95 95 96 99 93 93 100 99 97 96 92 92 91 88 87 82 78 67 56 60 65 73 78 76 77
88 87 87 87 87 86 87 86 87 90 84 69 87 84 75 86 99 98 100 98 99 92 90 91 97 97 96 97 97 96 94 98 92 95 99 98 97 96 93 88 83 77 65 62 59 58 59 59 58 64 68 72 72 68
89 88 87 87 87 85 84 84 87 82 73 72 75 99 90 93 93 95 93 96 90 92 92 94 98 99 98 96 94 86 91 86 92 98 99 99 98 96 93 88 84 76 69 50 61 63 62 59 67 65 70 74 73 75
89 89 86 81 78 82 81 82 86 70 73 76 71 100 80 67 64 53 55 84 86 88 77 81 86 70 82 79 83 82 86 97 97 98 99 99 96 90 83 75 68 55 53 53 53 54 55 60 64 66 64 70 72 71
89 88 67 82 78 82 82 79 70 66 69 66 62 61 48 65 63 53 48 47 41 44 53 58 69 74 89 91 92 97 95 99 98 99 99 98 96 95 96 88 84 67 66 68 62 66 63 62 64 64 64 62 60 67
91 78 77 77 82 86 80 63 59 51 45 49 53 46 82 78 74 59 49 46 42 46 61 68 85 99 92 95 96 97 99 100 99 98 98 95 94 94 93 88 81 77 78 70 60 58 67 47 58 63 62 63 54 68
74 58 71 78 86 77 60 64 52 43 42 56 65 54 56 75 80 56 51 50 50 54 59 68 71 89 97 97 99 98 99 98 98 97 96 91 82 78 77 76 80 71 68 67 69 54 54 48 44 47 49 55 44 42
72 74 82 88 87 85 60 46 54 56 46 50 63 50 67 81 82 65 53 54 54 53 58 68 88 96 98 96 95 94 95 95 95 93 93 90 89 81 76 72 68 69 62 59 53 45 44 45 39 39 40 40 43 48
88 89 90 86 82 63 47 57 54 53 61 62 76 67 61 66 64 54 54 55 57 60 70 81 87 91 93 91 89 89 88 88 89 89 76 69 70 67 67 63 58 58 51 53 41 48 37 37 33 36 41 42 40 49
73 63 73 65 60 57 49 50 56 61 59 70 64 63 84 61 61 61 62 56 62 75 86 85 74 74 64 60 60 68 82 88 86 73 75 59 60 57 54 52 48 47 39 40 40 42 42 41 38 35 41 39 38 39
60 76 63 55 53 51 57 53 53 58 67 66 62 58 66 65 65 66 60 67 87 91 89 86 85 55 54 60 56 54 57 63 59 45 46 47 45 42 39 37 38 39 39 40 40 39 39 42 38 34 42 42 45 43
73 74 64 50 58 82 80 53 57 53 64 56 59 60 78 76 77 67 87 85 84 83 82 84 77 70 66 66 56 50 51 51 48 43 41 37 42 46 39 40 38 41 43 42 38 37 38 49 40 37 37 38 41 42
85 69 65 67 65 84 55 68 60 56 55 59 69 72 77 85 80 74 76 68 72 52 52 65 53 50 49 60 44 46 44 35 35 42 39 39 38 46 42 39 35 33 37 36 34 35 36 37 42 33 34 35 35 37
88 82 76 99 74 64 44 43 47 47 48 49 68 92 95 97 74 76 78 71 65 58 55 55 54 53 49 38 32 35 42 33 35 37 37 37 38 35 37 37 35 33 30 36 33 32 35 34 33 33 31 33 37 35
92 65 88 69 85 70 60 61 55 50 46 47 65 85 86 82 66 75 75 70 66 60 54 53 50 38 34 31 32 32 33 31 35 34 38 33 33 34 36 37 36 35 30 32 33 34 35 33 32 34 31 34 46 34
82 86 89 87 91 88 76 58 48 40 47 48 53 54 60 69 71 64 61 57 53 49 48 43 37 30 28 27 29 30 28 30 37 34 31 28 28 30 31 35 37 38 33 30 32 34 33 32 33 32 32 33 36 35
88 96 84 79 87 63 53 48 41 44 43 42 46 59 68 72 72 56 55 52 44 42 40 33 26 23 23 24 25 27 28 28 30 29 26 26 26 27 33 29 33 58 40 38 35 33 32 32 34 33 33 34 37 35
80 74 70 68 45 38 40 44 44 42 41 42 56 60 57 60 52 48 48 44 42 39 29 26 26 23 22 24 26 26 29 30 36 40 36 34 32 31 30 29 28 29 29 30 51 42 38 39 36 34 34 37 38 36
47 38 39 39 39 43 42 36 41 38 41 42 46 51 52 51 46 40 34 32 32 27 26 23 23 25 26 26 27 29 32 32 33 36 36 34 31 30 32 31 31 30 31 32 29 31 51 36 41 35 36 36 37 38
22 22 32 36 38 35 36 33 33 34 35 37 36 42 47 49 44 38 36 35 29 26 25 23 22 26 27 28 31 31 32 34 34 34 33 30 30 34 35 35 33 32 34 33 32 33 34 34 35 36 36 38 39 41
30 30 29 31 40 35 37 41 41 41 40 42 48 46 50 68 68 47 41 34 30 29 38 27 24 29 28 27 29 29 47 32 34 33 35 34 36 37 36 34 34 33 35 31 31 32 32 34 36 37 38 40 42 42
25 24 27 24 42 46 40 44 45 44 44 45 57 49 45 44 47 41 37 32 32 29 28 26 26 28 37 32 32 33 42 34 43 59 63 63 66 55 39 35 38 36 34 33 33 33 36 38 39 42 43 45 47 46